Ravenna, OH

8:26 PM EDT on April 24, 2017 (GMT -0400)
Ravenna

Weather History for KPOV - December, 2013

Change the Weather History Date:

Tuesday, December 10, 2013

  Actual Average (KCAK) Record (KCAK)
Temperature  
Mean Temperature 22 °F -  
Max Temperature 25 °F 38 °F 67 °F (1971)
Min Temperature 20 °F 25 °F -11 °F (1958)
Degree Days  
Heating Degree Days 42    
Moisture  
Dew Point 11 °F    
Average Humidity 61    
Maximum Humidity 71    
Minimum Humidity 43    
Precipitation  
Precipitation 0.00 in - - ()
Sea Level Pressure  
Sea Level Pressure 30.06 in    
Wind  
Wind Speed 11 mph (WSW)    
Max Wind Speed 22 mph    
Max Gust Speed 33 mph    
Visibility 10 miles    
Events Snow    
Averages and records for this station are not official NWS values.
T = Trace of Precipitation, MM = Missing Value Source: NWS Daily Summary

Daily Weather History Graph

Daily Weather History Graph

Search for Another Location

Airport or City:

Trip Planner

Search our weather history database for the weather conditions in past years. The results will help you decide how hot, cold, wet, or windy it might be!

Date:

Astronomy

Dec. 10, 2013 Rise Set
Actual Time 7:39 AM EST 4:56 PM EST
Civil Twilight 7:08 AM EST 5:27 PM EST
Nautical Twilight 6:34 AM EST 6:01 PM EST
Astronomical Twilight 6:00 AM EST 6:35 PM EST
Moon 12:59 PM EST (12/10) 12:53 AM EST (12/10)
Length of Visible Light 10h 18m
Length of Day
9h 16m
First Quarter, 61% of the Moon is Illuminated
Dec 10
First Quarter
Dec 17
Full
Dec 25
Last Quarter
Jan 1
New
Jan 7
First Quarter

Hourly Weather History & Observations

Time (EST) Temp. Windchill Dew Point Humidity Pressure Visibility Wind Dir Wind Speed Gust Speed Precip Events Conditions
12:15 AM 25.2 °F 13.9 °F 16.3 °F 69% 30.08 in 10.0 mi WSW 12.7 mph 19.6 mph N/A   Overcast
12:34 AM 24.8 °F 14.0 °F 15.8 °F 69% 30.07 in 10.0 mi WSW 11.5 mph 18.4 mph N/A   Overcast
12:55 AM 24.6 °F 14.4 °F 15.4 °F 68% 30.07 in 10.0 mi WSW 10.4 mph 19.6 mph N/A   Overcast
1:15 AM 24.4 °F 15.6 °F 15.4 °F 69% 30.06 in 10.0 mi West 8.1 mph 16.1 mph N/A   Overcast
1:35 AM 24.3 °F 12.7 °F 15.6 °F 70% 30.07 in 10.0 mi WSW 12.7 mph 21.9 mph N/A   Overcast
1:54 AM 24.1 °F 13.7 °F 15.6 °F 70% 30.07 in 10.0 mi WSW 10.4 mph - N/A   Overcast
2:15 AM 23.9 °F 12.9 °F 15.4 °F 70% 30.09 in 10.0 mi WSW 11.5 mph - N/A   Overcast
2:35 AM 23.9 °F 12.9 °F 14.9 °F 69% 30.10 in 10.0 mi WSW 11.5 mph 16.1 mph N/A   Overcast
2:54 AM 23.9 °F 14.2 °F 14.7 °F 68% 30.10 in 10.0 mi West 9.2 mph - N/A   Overcast
3:15 AM 23.7 °F 14.0 °F 14.9 °F 69% 30.09 in 10.0 mi WSW 9.2 mph 16.1 mph N/A   Overcast
3:34 AM 23.5 °F 14.5 °F 13.6 °F 66% 30.08 in 10.0 mi WSW 8.1 mph - N/A   Overcast
3:55 AM 23.0 °F 13.1 °F 12.7 °F 65% 30.06 in 10.0 mi WSW 9.2 mph - N/A   Overcast
4:15 AM 23.0 °F 13.9 °F 12.4 °F 64% 30.05 in 10.0 mi West 8.1 mph - N/A   Overcast
4:35 AM 22.8 °F 13.6 °F 13.1 °F 66% 30.05 in 10.0 mi West 8.1 mph - N/A   Overcast
4:54 AM 22.8 °F 14.5 °F 13.1 °F 66% 30.05 in 10.0 mi West 6.9 mph - N/A   Overcast
5:15 AM 22.3 °F 13.9 °F 13.1 °F 68% 30.05 in 10.0 mi WNW 6.9 mph - N/A Snow Light Snow
5:34 AM 22.1 °F 13.7 °F 13.6 °F 70% 30.04 in 10.0 mi WSW 6.9 mph - N/A   Overcast
5:55 AM 21.9 °F 11.0 °F 12.2 °F 66% 30.05 in 10.0 mi WSW 10.4 mph - N/A   Overcast
6:15 AM 21.7 °F 12.3 °F 12.0 °F 66% 30.05 in 10.0 mi West 8.1 mph - N/A   Overcast
6:35 AM 21.2 °F 13.6 °F 11.5 °F 66% 30.04 in 10.0 mi West 5.8 mph - N/A   Overcast
6:54 AM 21.2 °F 14.9 °F 11.7 °F 67% 30.05 in 10.0 mi WSW 4.6 mph - N/A   Overcast
7:15 AM 21.2 °F 13.6 °F 11.8 °F 67% 30.04 in 10.0 mi West 5.8 mph - N/A   Overcast
7:34 AM 21.0 °F 11.4 °F 11.3 °F 66% 30.04 in 10.0 mi West 8.1 mph - N/A   Overcast
7:55 AM 20.8 °F 12.1 °F 11.3 °F 67% 30.04 in 10.0 mi West 6.9 mph - N/A   Overcast
8:15 AM 20.8 °F 11.2 °F 11.7 °F 68% 30.04 in 10.0 mi West 8.1 mph - N/A   Overcast
8:35 AM 20.8 °F 11.2 °F 12.4 °F 70% 30.05 in 10.0 mi West 8.1 mph - N/A   Overcast
8:55 AM 20.7 °F 8.8 °F 12.0 °F 69% 30.05 in 10.0 mi West 11.5 mph - N/A   Overcast
9:15 AM 20.8 °F 10.4 °F 12.7 °F 71% 30.05 in 10.0 mi West 9.2 mph - N/A   Overcast
9:35 AM 20.8 °F 10.4 °F 12.9 °F 71% 30.05 in 10.0 mi West 9.2 mph - N/A   Overcast
9:54 AM 21.0 °F 10.6 °F 12.0 °F 68% 30.06 in 10.0 mi West 9.2 mph 19.6 mph N/A   Scattered Clouds
10:15 AM 21.6 °F 11.3 °F 12.4 °F 68% 30.05 in 10.0 mi WSW 9.2 mph - N/A   Scattered Clouds
10:35 AM 22.1 °F 11.3 °F 12.9 °F 68% 30.05 in 10.0 mi WSW 10.4 mph - N/A   Scattered Clouds
10:54 AM 21.6 °F 9.9 °F 9.0 °F 58% 30.06 in 10.0 mi West 11.5 mph - N/A   Scattered Clouds
11:15 AM 22.8 °F 12.2 °F 9.5 °F 57% 30.05 in 10.0 mi WSW 10.4 mph - N/A   Clear
11:34 AM 23.0 °F 11.1 °F 9.1 °F 55% 30.04 in 10.0 mi WSW 12.7 mph 17.3 mph N/A   Clear
11:55 AM 23.7 °F 14.7 °F 9.3 °F 54% 30.04 in 10.0 mi WSW 8.1 mph 17.3 mph N/A   Clear
12:15 PM 23.7 °F 12.6 °F 9.3 °F 54% 30.02 in 10.0 mi WSW 11.5 mph 16.1 mph N/A   Clear
12:34 PM 24.3 °F 13.9 °F 7.7 °F 49% 30.02 in 10.0 mi WSW 10.4 mph - N/A   Mostly Cloudy
12:55 PM 24.4 °F 14.9 °F 8.6 °F 51% 30.02 in 10.0 mi WSW 9.2 mph 17.3 mph N/A   Mostly Cloudy
1:15 PM 24.4 °F 14.2 °F 9.3 °F 53% 30.00 in 10.0 mi SW 10.4 mph 16.1 mph N/A   Mostly Cloudy
1:35 PM 24.8 °F 14.6 °F 8.8 °F 51% 29.99 in 10.0 mi WSW 10.4 mph 19.6 mph N/A   Scattered Clouds
1:54 PM 24.8 °F 14.6 °F 7.9 °F 49% 29.99 in 10.0 mi SSW 10.4 mph 17.3 mph N/A   Scattered Clouds
2:15 PM 25.5 °F 13.8 °F 6.1 °F 44% 29.98 in 10.0 mi SW 13.8 mph 19.6 mph N/A   Clear
2:35 PM 25.5 °F 16.2 °F 7.5 °F 47% 29.97 in 10.0 mi SSW 9.2 mph - N/A   Scattered Clouds
2:55 PM 25.2 °F 15.1 °F 5.9 °F 44% 29.98 in 10.0 mi SW 10.4 mph 19.6 mph N/A   Scattered Clouds
3:15 PM 25.3 °F 13.6 °F 5.5 °F 43% 29.97 in 10.0 mi SW 13.8 mph 21.9 mph N/A   Mostly Cloudy
3:35 PM 25.5 °F 14.3 °F 6.8 °F 45% 29.98 in 10.0 mi SW 12.7 mph 19.6 mph N/A   Mostly Cloudy
3:54 PM 25.2 °F 13.9 °F 6.6 °F 45% 29.99 in 10.0 mi WSW 12.7 mph 26.5 mph N/A   Mostly Cloudy
4:15 PM 25.2 °F 13.3 °F 6.3 °F 45% 29.99 in 10.0 mi WSW 13.8 mph 25.3 mph N/A   Mostly Cloudy
4:35 PM 24.6 °F 13.2 °F 6.6 °F 46% 30.00 in 10.0 mi WSW 12.7 mph 23.0 mph N/A   Scattered Clouds
4:54 PM 24.4 °F 11.0 °F 7.0 °F 48% 30.01 in 10.0 mi WSW 17.3 mph 25.3 mph N/A   Scattered Clouds
5:15 PM 24.3 °F 13.9 °F 8.1 °F 50% 30.03 in 10.0 mi WSW 10.4 mph 23.0 mph N/A   Mostly Cloudy
5:35 PM 23.9 °F 10.8 °F 8.6 °F 52% 30.04 in 10.0 mi West 16.1 mph 24.2 mph N/A   Overcast
5:54 PM 23.5 °F 8.3 °F 9.5 °F 55% 30.05 in 10.0 mi West 21.9 mph 33.4 mph N/A   Mostly Cloudy
6:15 PM 23.0 °F 11.7 °F 9.7 °F 57% 30.07 in 10.0 mi WSW 11.5 mph 24.2 mph N/A   Mostly Cloudy
6:34 PM 22.8 °F 10.9 °F 9.9 °F 58% 30.08 in 10.0 mi WSW 12.7 mph 25.3 mph N/A   Overcast
6:55 PM 22.5 °F 9.4 °F 10.2 °F 59% 30.10 in 10.0 mi West 15.0 mph 25.3 mph N/A   Mostly Cloudy
7:15 PM 22.6 °F 10.1 °F 10.4 °F 59% 30.10 in 10.0 mi WSW 13.8 mph 26.5 mph N/A   Overcast
7:35 PM 22.8 °F 10.4 °F 11.1 °F 61% 30.10 in 10.0 mi WSW 13.8 mph 20.7 mph N/A   Overcast
7:54 PM 22.8 °F 10.4 °F 11.7 °F 62% 30.11 in 10.0 mi WSW 13.8 mph 19.6 mph N/A   Overcast
8:15 PM 22.5 °F 9.9 °F 11.7 °F 63% 30.12 in 10.0 mi WSW 13.8 mph 21.9 mph N/A   Mostly Cloudy
8:34 PM 22.8 °F 9.9 °F 12.2 °F 64% 30.13 in 10.0 mi WSW 15.0 mph 24.2 mph N/A   Mostly Cloudy
8:55 PM 22.8 °F 8.1 °F 12.6 °F 65% 30.13 in 10.0 mi WSW 19.6 mph 27.6 mph N/A   Overcast
9:15 PM 22.6 °F 9.6 °F 12.2 °F 64% 30.14 in 10.0 mi West 15.0 mph 26.5 mph N/A   Overcast
9:35 PM 22.1 °F 9.5 °F 12.2 °F 66% 30.15 in 10.0 mi West 13.8 mph 20.7 mph N/A   Overcast
9:54 PM 21.9 °F 9.2 °F 12.2 °F 66% 30.14 in 10.0 mi WSW 13.8 mph 18.4 mph N/A   Overcast
10:15 PM 21.7 °F 9.6 °F 11.8 °F 66% 30.15 in 10.0 mi WSW 12.7 mph 20.7 mph N/A   Overcast
10:34 PM 21.2 °F 8.3 °F 11.7 °F 67% 30.15 in 10.0 mi WSW 13.8 mph 19.6 mph N/A   Mostly Cloudy
10:55 PM 20.8 °F 8.4 °F 11.5 °F 67% 30.17 in 10.0 mi WSW 12.7 mph 18.4 mph N/A   Scattered Clouds
11:15 PM 20.7 °F 7.1 °F 11.1 °F 67% 30.18 in 10.0 mi WSW 15.0 mph 21.9 mph N/A   Clear
11:35 PM 20.3 °F 8.3 °F 11.1 °F 68% 30.19 in 10.0 mi West 11.5 mph 18.4 mph N/A   Clear
11:54 PM 20.3 °F 7.2 °F 11.3 °F 68% 30.21 in 10.0 mi WSW 13.8 mph 20.7 mph N/A   Clear